Wind_Speed
12 8 9 10 6 9 18 9 19 19 19 6 6 3 9 10 8 9 9 1 6 10 11 12 13 14 13 13 13 15 16 17 19 20 20 21 22 24 26 26 28 28 28 27 27 28 29 27 28
12 8 9 6 12 12 9 18 20 16 5 8 4 5 7 14 11 9 6 2 6 10 11 11 11 11 12 14 16 17 18 19 20 21 22 23 25 26 27 28 28 28 30 31 32 32 29 31 30
10 5 9 9 10 10 9 16 14 19 11 6 3 3 8 10 6 5 3 5 11 11 10 10 9 11 13 15 17 19 20 22 24 25 26 28 28 30 32 33 32 33 33 34 35 37 36 34 33
8 7 5 7 10 12 14 14 7 7 5 4 3 6 11 11 2 2 7 10 9 10 9 9 11 13 15 17 19 21 23 25 28 30 31 32 32 34 35 36 36 36 38 38 38 40 39 38 38
5 5 6 9 12 19 14 9 6 3 1 8 5 3 7 12 4 2 8 8 8 7 9 12 14 17 20 22 23 24 26 28 30 31 31 32 34 35 36 37 38 38 38 39 40 41 42 42 41
4 5 6 12 20 17 12 9 3 2 6 8 7 4 1 7 6 1 4 6 7 9 13 16 20 23 24 26 27 29 30 31 30 30 30 31 33 36 39 40 41 43 43 43 43 43 44 44 45
4 6 3 16 20 18 13 10 7 4 7 7 7 5 4 7 5 2 5 5 8 13 18 22 25 26 27 29 30 30 31 30 30 32 33 34 36 37 38 39 40 42 43 44 43 43 43 45 46
5 6 6 16 19 16 15 11 6 3 7 7 6 4 5 4 3 3 4 7 13 17 20 22 24 27 29 30 31 31 30 30 32 33 35 36 36 37 37 38 38 38 39 40 40 39 37 38 38
3 4 7 17 15 7 8 5 3 4 6 3 6 4 5 6 5 6 9 12 16 18 19 22 25 26 30 32 31 31 31 33 34 35 36 37 37 38 38 39 40 39 38 37 36 35 37 39 39
4 2 6 12 9 2 5 4 4 3 5 5 14 9 7 8 7 8 10 13 16 17 19 21 25 29 31 30 30 31 33 34 36 37 37 38 40 42 43 43 43 42 41 38 37 35 34 36 38
2 3 8 11 6 5 3 2 3 6 8 7 8 8 7 6 7 10 13 12 13 16 21 25 30 31 30 30 32 34 35 36 38 38 39 40 42 43 44 42 41 40 38 36 35 34 33 34 35
3 4 8 5 9 4 4 6 10 8 8 7 8 7 6 7 10 11 9 11 15 19 26 31 33 33 33 33 34 37 38 38 39 40 42 43 45 46 44 41 39 37 35 32 30 29 28 28 29
4 8 7 9 6 3 2 6 7 7 7 7 7 8 9 9 9 8 10 14 18 23 30 35 35 34 33 35 38 38 39 40 41 43 44 45 47 47 44 41 38 36 35 32 29 26 25 26 25
2 8 8 10 4 2 3 8 9 11 10 6 6 6 6 7 7 8 12 18 21 25 34 38 37 36 36 37 39 39 40 41 43 45 46 47 46 44 40 38 37 37 36 34 32 32 29 28 27
9 5 11 11 9 8 6 9 11 12 11 9 8 7 7 6 7 10 14 19 25 29 35 42 40 38 39 41 40 41 42 44 44 46 47 46 43 40 39 38 37 37 36 34 33 33 33 30 28
14 8 12 13 13 13 11 10 14 14 14 13 12 10 10 9 10 12 16 22 27 32 36 44 41 39 41 43 43 44 44 45 46 46 46 43 40 37 36 36 35 34 34 33 32 33 32 31 29
13 9 13 14 17 17 15 13 14 17 16 17 16 14 15 15 14 16 20 23 28 34 37 44 41 40 42 43 43 44 44 45 46 46 43 40 37 36 35 34 33 33 34 33 32 32 34 34 30
11 12 13 18 18 21 20 19 19 22 23 22 21 19 19 19 18 21 23 24 28 34 39 44 42 42 42 43 44 43 44 45 45 43 40 38 36 36 36 35 33 33 33 33 32 32 32 35 35
8 7 12 17 19 19 18 18 22 25 27 26 25 21 21 22 22 25 24 25 29 35 40 43 43 43 43 42 41 41 44 45 44 42 38 36 36 35 34 34 33 32 32 34 34 32 32 32 34
11 14 17 19 17 18 19 20 22 28 31 29 27 26 24 25 28 27 25 26 30 35 41 44 43 44 43 43 45 46 47 47 44 41 38 36 34 34 34 33 33 34 34 34 34 33 31 33 35
16 18 19 19 17 20 23 24 25 27 29 29 30 29 28 28 29 28 27 26 30 35 41 44 44 43 44 44 44 44 43 42 38 35 35 34 34 34 34 34 34 35 35 35 35 35 34 32 32
19 17 14 14 12 12 16 8 15 19 23 27 30 31 31 31 30 29 27 27 30 35 41 44 44 43 44 44 45 46 46 45 41 38 36 35 34 33 33 33 34 35 35 36 36 36 36 36 33
12 11 12 14 15 15 15 11 13 15 22 22 26 30 32 32 31 28 27 27 29 35 42 44 43 43 44 45 46 46 45 43 39 36 34 32 32 32 33 33 34 35 35 36 37 36 35 35 35
11 9 11 12 11 8 18 17 11 13 14 19 23 30 33 33 31 29 27 27 30 36 42 42 43 43 44 45 44 45 44 40 37 34 32 32 32 33 33 34 35 36 36 37 37 36 35 33 33
13 10 3 2 1 7 3 7 19 19 21 22 17 20 27 30 29 28 25 26 30 37 41 41 42 43 43 43 44 44 41 38 36 34 33 33 33 34 34 36 36 36 36 36 35 34 34 32 32
14 14 7 5 3 4 4 8 6 10 15 12 10 8 12 18 24 24 23 25 30 38 39 41 41 42 42 43 43 42 40 36 34 33 33 32 33 34 36 35 36 35 35 34 34 33 32 31 30
13 14 14 5 6 3 5 8 15 9 8 7 8 6 8 15 20 20 21 24 32 37 37 40 41 42 42 42 41 40 37 34 32 31 31 32 33 34 35 34 33 33 34 34 34 31 30 30 29
15 7 6 7 2 4 5 7 8 6 7 8 9 10 8 14 17 18 20 26 33 35 37 40 41 42 42 40 39 38 35 32 31 30 30 32 32 33 33 32 31 32 33 34 33 30 30 29 29
16 17 11 6 5 4 2 4 5 11 5 15 13 11 10 14 15 17 21 27 32 34 38 39 40 41 39 39 39 36 32 30 29 30 31 32 32 31 30 31 32 33 34 32 31 31 31 30 28
18 18 19 10 5 7 3 11 7 2 15 22 16 12 13 15 16 19 23 28 31 33 36 38 39 39 38 38 37 33 30 29 29 31 31 31 30 29 29 30 31 32 34 34 35 34 32 30 28
Wind_Direction
34 91 125 124 106 111 109 134 158 157 141 143 174 198 89 70 45 116 150 359 325 347 358 349 336 331 328 326 326 324 324 327 329 325 317 311 309 307 306 304 300 298 297 291 285 286 284 278 277
51 123 154 161 122 111 99 148 155 166 178 129 153 115 66 61 56 85 130 14 320 358 0 344 334 334 334 337 336 336 335 334 329 322 318 314 311 306 303 300 298 295 292 290 287 282 279 277 275
60 108 138 113 118 108 122 159 165 128 123 152 263 13 20 91 68 104 54 359 342 343 351 336 333 336 338 335 335 331 329 326 323 321 317 310 306 304 301 298 297 294 292 290 288 286 282 277 273
56 71 82 112 115 110 126 124 112 68 59 46 306 326 61 100 54 319 326 346 335 346 337 327 337 337 335 331 328 326 326 325 322 317 312 309 306 302 300 298 296 293 291 288 286 285 286 285 282
31 34 67 134 132 127 130 125 88 61 7 340 326 25 22 121 123 337 334 358 359 341 322 326 330 329 327 326 328 328 326 321 316 312 310 309 309 308 306 304 302 298 292 289 287 283 281 277 276
8 23 112 145 138 138 145 145 161 219 317 2 2 338 29 143 157 4 11 9 339 324 319 325 330 330 330 329 328 326 321 317 315 315 315 313 310 309 308 306 304 302 298 294 288 284 279 274 270
7 23 151 159 151 153 165 157 178 254 357 355 337 327 117 127 114 57 24 343 320 320 330 332 331 328 327 325 324 321 320 320 319 317 316 316 313 310 307 305 304 302 298 294 292 288 282 277 271
348 354 149 177 165 166 171 176 202 344 346 334 317 338 18 86 85 34 9 341 331 329 326 325 322 323 324 324 323 322 321 321 319 319 319 318 317 315 312 310 306 300 296 292 290 288 288 285 279
2 350 170 172 172 185 190 190 276 321 343 353 12 38 54 72 66 28 5 338 326 320 319 322 324 327 326 325 325 326 325 323 322 321 322 321 320 318 317 314 311 307 301 296 291 287 285 286 288
342 333 181 178 156 134 167 216 238 333 38 58 28 25 43 54 41 14 347 320 313 319 324 330 334 330 329 329 329 326 325 323 324 324 324 324 324 323 321 320 316 311 306 301 294 291 286 283 283
286 235 192 168 162 125 33 54 329 24 42 42 37 38 37 27 8 348 324 319 325 334 342 340 336 334 333 332 330 329 327 327 326 326 327 327 327 324 322 318 315 311 307 303 298 293 289 285 281
224 176 168 186 143 118 7 6 11 7 25 38 27 24 24 16 1 340 333 338 342 348 349 342 339 337 336 334 331 331 331 330 328 328 329 330 329 326 323 320 318 316 315 314 310 304 299 293 287
142 157 158 157 158 142 348 352 4 360 17 19 16 14 13 3 344 337 346 353 354 352 348 346 341 337 336 334 334 333 332 331 330 331 332 331 330 327 325 323 321 321 320 322 323 321 313 306 301
155 148 146 156 178 242 277 326 336 339 351 342 358 0 347 348 347 350 2 1 352 347 349 346 341 338 337 336 334 334 334 333 333 332 332 332 330 328 325 323 323 323 323 322 321 318 315 313 310
144 164 165 174 204 220 247 295 312 330 322 320 314 320 313 328 348 350 350 350 349 343 344 345 342 340 338 335 336 337 336 335 333 333 334 331 330 330 327 326 325 322 320 321 321 318 316 315 316
157 180 186 205 211 217 242 273 293 301 299 301 295 295 300 315 322 332 336 341 337 338 339 343 342 339 338 335 338 338 335 333 334 334 331 332 333 331 327 325 324 324 324 325 325 320 317 316 316
187 200 214 211 223 233 230 260 283 285 293 297 294 292 296 299 312 327 331 328 332 333 336 342 341 339 336 338 338 336 334 334 334 333 333 333 332 329 327 328 329 329 328 328 329 328 322 320 321
221 222 240 248 250 244 251 261 271 281 282 294 287 286 286 292 307 320 320 318 324 331 335 340 340 338 336 338 336 335 334 335 335 334 334 333 332 330 330 332 334 332 331 331 331 331 328 324 322
228 256 278 283 263 258 273 278 276 280 278 278 283 284 284 289 300 306 308 315 322 330 336 339 337 334 335 336 335 334 336 337 336 334 334 332 331 332 333 334 335 335 335 333 333 333 331 327 322
239 265 277 277 264 250 261 272 271 268 274 274 275 272 277 282 288 294 302 311 322 329 335 337 333 333 335 337 337 338 339 337 335 335 333 332 332 334 336 337 337 337 337 334 333 332 333 333 329
258 267 278 271 255 248 256 261 262 271 269 266 262 263 266 272 278 289 297 310 322 328 335 333 331 333 337 339 338 338 336 333 333 332 331 333 336 338 337 338 339 338 336 335 335 334 333 335 334
253 267 259 256 241 240 256 278 272 280 270 266 263 263 266 270 276 284 296 310 320 327 331 329 331 335 339 337 336 336 337 337 338 337 335 335 338 337 339 340 339 338 337 337 336 337 336 334 333
242 259 233 237 261 260 255 261 276 277 274 287 278 269 268 269 274 284 295 309 318 325 328 328 332 337 337 336 337 337 337 339 338 337 335 336 338 339 340 340 339 339 339 340 339 338 336 334 334
247 224 229 248 255 261 275 237 276 282 299 282 280 269 268 269 275 284 294 308 315 322 325 329 334 337 336 337 337 338 338 338 337 335 337 339 340 341 341 340 340 341 342 340 340 339 337 337 337
231 224 247 280 234 232 279 217 266 277 287 291 289 282 275 274 278 282 294 305 313 321 325 331 335 335 336 337 339 338 338 337 336 337 340 342 341 341 342 342 343 344 344 343 343 341 339 339 339
232 226 215 225 212 264 265 246 263 298 311 317 316 306 277 273 275 281 293 301 315 320 327 333 334 335 336 338 338 338 339 336 338 341 343 342 343 343 343 345 345 345 346 347 346 343 341 342 340
219 221 236 257 281 291 245 277 297 320 330 350 336 318 294 276 274 283 292 300 316 322 328 332 335 336 338 338 338 338 338 340 342 344 343 344 344 344 346 348 349 348 349 349 347 343 344 341 338
223 231 209 211 228 265 274 280 278 337 344 350 352 333 304 275 278 283 289 306 316 324 327 334 336 337 339 337 338 340 341 342 343 344 346 347 347 348 350 352 353 352 349 347 346 345 344 341 337
226 228 222 219 229 193 299 258 304 320 347 342 341 330 296 273 278 286 297 309 319 323 330 336 336 338 337 338 341 342 341 342 346 347 349 350 351 352 355 356 354 351 350 350 349 347 344 341 338
236 241 242 224 216 216 248 286 298 290 327 332 329 315 282 278 286 294 304 312 319 324 334 336 337 336 337 341 342 342 342 346 348 349 351 353 354 357 358 356 356 356 354 352 348 344 342 340 338
Height
3174 3174 3175 3176 3180 3179 3181 3185 3185 3185 3186 3186 3186 3186 3185 3184 3184 3187 3185 3187 3186 3185 3184 3184 3183 3182 3180 3178 3176 3174 3172 3171 3169 3167 3163 3160 3158 3155 3153 3151 3148 3145 3144 3141 3139 3138 3137 3134 3133
3175 3176 3177 3177 3179 3180 3184 3186 3187 3188 3188 3187 3187 3186 3184 3184 3185 3184 3185 3185 3185 3185 3184 3184 3183 3181 3179 3177 3175 3174 3172 3170 3167 3163 3161 3158 3156 3152 3149 3147 3145 3142 3140 3137 3135 3132 3132 3131 3130
3177 3178 3179 3179 3181 3182 3184 3187 3188 3189 3189 3189 3188 3186 3184 3184 3186 3186 3186 3186 3186 3184 3184 3184 3183 3181 3179 3177 3175 3172 3169 3166 3163 3160 3157 3154 3151 3148 3145 3142 3140 3137 3135 3133 3130 3128 3127 3125 3124
3179 3180 3182 3182 3183 3185 3186 3189 3190 3190 3190 3189 3187 3186 3185 3186 3187 3186 3185 3185 3185 3185 3185 3185 3183 3181 3179 3176 3173 3170 3166 3163 3159 3156 3151 3148 3145 3142 3138 3135 3133 3130 3127 3125 3123 3121 3120 3120 3118
3179 3180 3182 3184 3184 3186 3189 3190 3191 3192 3192 3191 3188 3186 3185 3185 3186 3186 3186 3186 3186 3186 3186 3185 3183 3180 3177 3174 3171 3167 3164 3160 3156 3151 3147 3143 3139 3135 3131 3128 3126 3122 3118 3116 3114 3112 3111 3109 3109
3179 3181 3183 3185 3186 3188 3190 3191 3192 3193 3191 3189 3188 3187 3185 3185 3186 3187 3187 3187 3187 3187 3185 3183 3180 3178 3174 3171 3167 3164 3159 3155 3151 3147 3143 3140 3135 3131 3126 3122 3117 3114 3110 3107 3103 3100 3098 3097 3095
3179 3180 3183 3185 3187 3189 3191 3192 3193 3193 3191 3189 3188 3186 3186 3185 3186 3187 3188 3189 3188 3186 3183 3181 3177 3174 3172 3168 3164 3160 3155 3151 3147 3143 3139 3135 3131 3126 3120 3116 3110 3106 3101 3097 3093 3090 3087 3085 3084
3178 3179 3182 3185 3186 3188 3191 3192 3193 3191 3190 3189 3187 3186 3185 3185 3186 3188 3189 3188 3187 3185 3183 3180 3177 3173 3169 3165 3160 3156 3152 3147 3143 3138 3134 3128 3124 3119 3114 3108 3103 3098 3092 3087 3083 3079 3077 3073 3071
3177 3179 3180 3183 3184 3188 3189 3190 3190 3190 3190 3189 3188 3186 3187 3187 3188 3189 3188 3187 3185 3183 3182 3179 3175 3170 3165 3160 3155 3151 3147 3142 3138 3133 3128 3123 3117 3111 3105 3099 3094 3088 3084 3079 3075 3071 3067 3064 3060
3177 3178 3179 3183 3185 3188 3189 3190 3190 3191 3190 3189 3188 3188 3188 3189 3189 3189 3188 3187 3184 3182 3180 3176 3172 3167 3162 3157 3153 3148 3143 3138 3133 3127 3121 3115 3109 3103 3097 3091 3085 3080 3074 3070 3066 3062 3059 3056 3053
3176 3177 3179 3182 3184 3186 3188 3188 3190 3189 3190 3191 3191 3190 3190 3189 3188 3187 3186 3184 3182 3180 3176 3172 3168 3163 3159 3154 3149 3144 3138 3132 3126 3120 3115 3109 3103 3098 3091 3085 3078 3072 3065 3061 3057 3053 3050 3047 3045
3177 3178 3180 3182 3183 3185 3187 3187 3188 3188 3190 3190 3190 3189 3189 3187 3186 3185 3184 3182 3180 3177 3173 3169 3163 3159 3154 3150 3145 3139 3133 3126 3120 3114 3108 3102 3096 3089 3082 3075 3069 3063 3057 3053 3048 3045 3041 3039 3036
3177 3179 3180 3181 3183 3185 3186 3186 3187 3188 3188 3188 3188 3187 3186 3185 3186 3184 3182 3180 3177 3174 3171 3166 3161 3156 3151 3146 3140 3134 3127 3121 3114 3108 3101 3093 3086 3080 3074 3067 3061 3055 3050 3045 3041 3037 3034 3032 3029
3177 3179 3180 3182 3184 3185 3186 3185 3185 3186 3186 3187 3187 3186 3186 3186 3185 3183 3180 3178 3175 3172 3168 3164 3158 3152 3147 3142 3136 3129 3122 3116 3109 3101 3094 3087 3080 3074 3067 3061 3055 3050 3044 3039 3034 3030 3027 3023 3020
3176 3179 3181 3182 3184 3185 3186 3186 3184 3184 3184 3185 3185 3185 3184 3185 3183 3181 3179 3176 3173 3170 3166 3160 3154 3148 3142 3136 3131 3123 3116 3110 3103 3096 3089 3082 3074 3068 3063 3057 3050 3043 3037 3032 3027 3022 3017 3014 3013
3177 3180 3180 3182 3183 3185 3186 3186 3185 3184 3184 3184 3184 3183 3182 3182 3181 3179 3177 3174 3171 3167 3162 3157 3150 3144 3138 3131 3124 3118 3111 3105 3099 3091 3084 3076 3069 3064 3058 3051 3045 3038 3032 3026 3020 3015 3010 3007 3005
3176 3177 3179 3180 3181 3182 3184 3184 3184 3183 3182 3182 3181 3180 3179 3179 3179 3177 3174 3171 3169 3164 3160 3154 3147 3141 3135 3127 3120 3115 3108 3101 3094 3086 3078 3071 3064 3058 3052 3045 3038 3031 3025 3020 3014 3009 3002 2998 2998
3173 3175 3176 3176 3178 3177 3178 3180 3180 3179 3179 3178 3177 3176 3176 3176 3176 3175 3172 3170 3166 3161 3156 3149 3143 3137 3131 3124 3117 3111 3104 3097 3089 3081 3073 3065 3059 3052 3046 3040 3034 3027 3021 3016 3010 3005 2998 2992 2988
3173 3174 3174 3173 3174 3174 3173 3175 3175 3176 3176 3176 3175 3174 3172 3173 3173 3172 3169 3167 3162 3157 3152 3145 3139 3134 3128 3122 3115 3109 3101 3092 3084 3075 3068 3060 3054 3047 3042 3036 3030 3024 3017 3011 3005 3001 2995 2989 2982
3171 3172 3172 3171 3171 3173 3172 3172 3172 3172 3171 3172 3171 3170 3169 3169 3169 3168 3166 3163 3158 3154 3148 3141 3136 3130 3123 3115 3108 3100 3092 3085 3077 3069 3063 3057 3051 3044 3038 3031 3024 3018 3013 3008 3001 2995 2991 2984 2976
3169 3170 3170 3170 3170 3170 3170 3168 3168 3167 3166 3166 3165 3165 3164 3165 3165 3164 3162 3159 3154 3150 3143 3139 3133 3126 3117 3110 3104 3096 3090 3083 3076 3069 3062 3055 3045 3038 3033 3026 3020 3014 3008 3002 2996 2990 2984 2980 2974
3168 3168 3168 3168 3169 3169 3169 3163 3161 3162 3160 3159 3158 3158 3159 3160 3161 3160 3158 3154 3151 3146 3141 3135 3128 3121 3112 3105 3098 3091 3085 3077 3069 3061 3055 3048 3042 3036 3029 3023 3017 3010 3004 2998 2992 2985 2980 2974 2969
3166 3166 3167 3167 3167 3166 3164 3164 3153 3154 3153 3152 3152 3154 3155 3156 3157 3156 3154 3151 3147 3143 3138 3131 3124 3116 3108 3102 3095 3089 3081 3072 3065 3060 3054 3046 3040 3034 3027 3020 3014 3008 3001 2994 2988 2982 2976 2969 2964
3164 3165 3167 3166 3165 3163 3159 3161 3149 3148 3149 3149 3149 3150 3151 3152 3153 3153 3151 3148 3144 3139 3134 3127 3120 3111 3105 3098 3092 3084 3076 3069 3063 3057 3050 3044 3036 3031 3024 3017 3011 3003 2996 2990 2984 2977 2971 2966 2960
3162 3164 3165 3166 3165 3160 3156 3157 3147 3147 3147 3146 3146 3146 3148 3149 3150 3149 3147 3144 3141 3136 3130 3124 3116 3109 3102 3095 3087 3079 3073 3066 3060 3054 3047 3040 3034 3027 3021 3013 3006 2999 2993 2987 2981 2974 2968 2963 2957
3158 3161 3160 3161 3162 3156 3155 3150 3145 3145 3145 3143 3143 3143 3144 3145 3146 3146 3144 3141 3137 3132 3126 3120 3113 3106 3098 3090 3083 3076 3070 3063 3057 3050 3044 3038 3031 3024 3016 3010 3003 2996 2990 2984 2978 2971 2965 2960 2954
3155 3156 3158 3157 3156 3156 3150 3147 3146 3144 3143 3142 3142 3142 3141 3142 3142 3142 3140 3137 3133 3128 3123 3117 3108 3101 3093 3087 3081 3073 3066 3060 3054 3047 3042 3036 3028 3021 3014 3007 3001 2995 2988 2982 2976 2970 2964 2958 2952
3152 3154 3155 3155 3156 3155 3147 3145 3143 3144 3142 3142 3141 3140 3139 3139 3139 3139 3137 3133 3129 3124 3119 3111 3104 3097 3090 3084 3076 3069 3063 3056 3050 3045 3039 3032 3025 3018 3012 3006 3000 2994 2987 2980 2974 2968 2961 2955 2949
3149 3149 3151 3153 3153 3151 3151 3144 3142 3142 3141 3141 3139 3138 3137 3137 3137 3135 3133 3130 3125 3120 3113 3106 3100 3094 3087 3080 3073 3066 3061 3055 3049 3043 3036 3029 3022 3016 3010 3004 2998 2992 2985 2978 2972 2965 2958 2952 2945
3144 3145 3146 3148 3148 3148 3147 3141 3139 3139 3139 3137 3136 3135 3134 3134 3133 3132 3130 3126 3122 3116 3109 3103 3097 3091 3084 3076 3069 3064 3058 3052 3046 3040 3034 3027 3021 3014 3009 3003 2997 2990 2984 2976 2969 2962 2955 2948 2941